Previsão horária em Alimkina

Hoje, 20 Janeiro, Quarta-feira

Tempo Temperatura Precipitação Vento Pressão Humidade
00:00 -20°C° 0 mm 2 m/s 743 mmHg 97%
01:00 -21°C° 0 mm 2 m/s 743 mmHg 97%
02:00 -21°C° 0 mm 2 m/s 743 mmHg 99%
03:00 -20°C° 0 mm 2 m/s 743 mmHg 98%
04:00 -20°C° 0 mm 2 m/s 743 mmHg 98%
05:00 -20°C° 0 mm 2 m/s 743 mmHg 97%
06:00 -20°C° 0 mm 2 m/s 743 mmHg 97%
07:00 -20°C° 0 mm 2 m/s 744 mmHg 98%
08:00 -21°C° 0 mm 2 m/s 744 mmHg 98%
09:00 -22°C° 0 mm 3 m/s 744 mmHg 97%
10:00 -21°C° 0 mm 3 m/s 744 mmHg 96%
11:00 -19°C° 0 mm 3 m/s 745 mmHg 95%
12:00 -18°C° 0 mm 3 m/s 745 mmHg 95%
13:00 -18°C° 0 mm 3 m/s 745 mmHg 94%
14:00 -16°C° 0 mm 2 m/s 745 mmHg 97%
15:00 -17°C° 0 mm 2 m/s 745 mmHg 97%
16:00 -18°C° 0 mm 2 m/s 745 mmHg 97%
17:00 -19°C° 0 mm 2 m/s 745 mmHg 97%
18:00 -21°C° 0 mm 3 m/s 746 mmHg 97%
19:00 -21°C° 0 mm 3 m/s 746 mmHg 96%
20:00 -22°C° 0 mm 3 m/s 746 mmHg 96%
21:00 -22°C° 0 mm 3 m/s 746 mmHg 95%
22:00 -22°C° 0 mm 3 m/s 746 mmHg 94%
23:00 -23°C° 0 mm 3 m/s 746 mmHg 94%

Amanhã, 21 Janeiro, Quinta-feira

Tempo Temperatura Precipitação Vento Pressão Humidade
00:00 -23°C° 0 mm 3 m/s 746 mmHg 94%
01:00 -23°C° 0 mm 3 m/s 746 mmHg 94%
02:00 -23°C° 0 mm 3 m/s 746 mmHg 94%
03:00 -23°C° 0 mm 3 m/s 746 mmHg 93%
04:00 -23°C° 0 mm 3 m/s 746 mmHg 93%
05:00 -24°C° 0 mm 4 m/s 745 mmHg 92%
06:00 -23°C° 0 mm 4 m/s 745 mmHg 91%
07:00 -22°C° 0 mm 5 m/s 745 mmHg 89%
08:00 -21°C° 0 mm 5 m/s 744 mmHg 87%
09:00 -21°C° 0 mm 6 m/s 744 mmHg 88%
10:00 -18°C° 0 mm 6 m/s 743 mmHg 89%
11:00 -18°C° 0 mm 7 m/s 743 mmHg 90%
12:00 -17°C° 0.4 mm 7 m/s 742 mmHg 91%
13:00 -15°C° 0.4 mm 7 m/s 742 mmHg 92%
14:00 -14°C° 0.4 mm 7 m/s 741 mmHg 93%
15:00 -14°C° 0.3 mm 6 m/s 741 mmHg 94%
16:00 -12°C° 0.3 mm 6 m/s 741 mmHg 94%
17:00 -12°C° 0.3 mm 5 m/s 741 mmHg 94%
18:00 -11°C° 0.2 mm 5 m/s 740 mmHg 94%
19:00 -10°C° 0.2 mm 4 m/s 740 mmHg 95%
20:00 -8°C° 0.2 mm 3 m/s 740 mmHg 95%
21:00 -7°C° 0.1 mm 3 m/s 740 mmHg 95%
22:00 -6°C° 0.1 mm 3 m/s 740 mmHg 96%
23:00 -5°C° 0.1 mm 4 m/s 740 mmHg 96%

Depois de amanhã, 22 Janeiro, Sexta-feira

Tempo Temperatura Precipitação Vento Pressão Humidade
00:00 -4°C° 0.1 mm 4 m/s 740 mmHg 96%
01:00 -3°C° 0.1 mm 4 m/s 740 mmHg 95%
02:00 -4°C° 0.1 mm 5 m/s 740 mmHg 94%
03:00 -4°C° 0 mm 5 m/s 740 mmHg 94%
04:00 -2°C° 0 mm 5 m/s 740 mmHg 94%
05:00 -2°C° 0 mm 5 m/s 740 mmHg 93%
06:00 -2°C° 0 mm 5 m/s 740 mmHg 94%
07:00 -4°C° 0 mm 5 m/s 740 mmHg 94%
08:00 -4°C° 0 mm 5 m/s 740 mmHg 94%
09:00 -4°C° 0 mm 5 m/s 740 mmHg 94%
10:00 -4°C° 0 mm 5 m/s 740 mmHg 95%
11:00 -2°C° 0 mm 5 m/s 740 mmHg 95%
12:00 -3°C° 0 mm 6 m/s 740 mmHg 96%
13:00 -3°C° 0 mm 6 m/s 740 mmHg 96%
14:00 -3°C° 0 mm 6 m/s 740 mmHg 96%
15:00 -3°C° 0 mm 6 m/s 740 mmHg 95%
16:00 -3°C° 0 mm 6 m/s 740 mmHg 95%
17:00 -2°C° 0 mm 5 m/s 739 mmHg 94%
18:00 -2°C° 0 mm 5 m/s 739 mmHg 95%
19:00 -3°C° 0 mm 6 m/s 739 mmHg 95%
20:00 -3°C° 0 mm 6 m/s 739 mmHg 96%
21:00 -3°C° 0 mm 6 m/s 739 mmHg 96%
22:00 -3°C° 0 mm 6 m/s 739 mmHg 96%
23:00 -3°C° 0 mm 6 m/s 739 mmHg 96%

23 Janeiro, Sábado

Tempo Temperatura Precipitação Vento Pressão Humidade
00:00 -3°C° 0 mm 6 m/s 739 mmHg 95%
01:00 -3°C° 0 mm 6 m/s 739 mmHg 95%
02:00 -2°C° 0 mm 6 m/s 739 mmHg 94%
03:00 -3°C° 0 mm 6 m/s 739 mmHg 95%
04:00 -3°C° 0 mm 6 m/s 739 mmHg 95%
05:00 -3°C° 0 mm 6 m/s 739 mmHg 96%
06:00 -3°C° 0 mm 6 m/s 739 mmHg 96%
07:00 -2°C° 0 mm 6 m/s 739 mmHg 96%
08:00 -2°C° 0 mm 6 m/s 739 mmHg 96%
09:00 -2°C° 0 mm 6 m/s 739 mmHg 97%
10:00 -2°C° 0 mm 6 m/s 739 mmHg 97%
11:00 -2°C° 0 mm 7 m/s 739 mmHg 98%
12:00 -2°C° 0 mm 6 m/s 740 mmHg 99%
13:00 -2°C° 0 mm 6 m/s 740 mmHg 99%
14:00 -1°C° 0 mm 5 m/s 740 mmHg 99%
15:00 -1°C° 0 mm 5 m/s 740 mmHg 99%
16:00 -1°C° 0 mm 4 m/s 740 mmHg 99%
17:00 0°C° 0 mm 3 m/s 740 mmHg 99%
18:00 0°C° 0 mm 3 m/s 740 mmHg 99%
19:00 0°C° 0 mm 3 m/s 740 mmHg 98%
20:00 0°C° 0 mm 3 m/s 740 mmHg 98%
21:00 0°C° 0 mm 3 m/s 740 mmHg 98%
22:00 -1°C° 0 mm 4 m/s 740 mmHg 98%
23:00 -1°C° 0 mm 4 m/s 740 mmHg 98%

24 Janeiro, Domingo

Tempo Temperatura Precipitação Vento Pressão Humidade
00:00 -1°C° 0 mm 4 m/s 740 mmHg 98%
01:00 0°C° 0 mm 3 m/s 740 mmHg 99%
02:00 0°C° 0 mm 3 m/s 740 mmHg 99%
03:00 -1°C° 0 mm 4 m/s 740 mmHg 99%
04:00 -1°C° 0 mm 4 m/s 740 mmHg 99%
05:00 -1°C° 0 mm 4 m/s 739 mmHg 99%
06:00 -1°C° 0 mm 4 m/s 740 mmHg 98%
07:00 -1°C° 0 mm 4 m/s 740 mmHg 98%
08:00 -1°C° 0 mm 4 m/s 740 mmHg 98%
09:00 -1°C° 0 mm 4 m/s 740 mmHg 99%
10:00 -1°C° 0 mm 5 m/s 740 mmHg 99%
11:00 -1°C° 0 mm 5 m/s 740 mmHg 99%
12:00 -1°C° 0 mm 5 m/s 740 mmHg 99%
13:00 -1°C° 0 mm 5 m/s 740 mmHg 99%
14:00 -1°C° 0 mm 5 m/s 739 mmHg 99%
15:00 -1°C° 0 mm 5 m/s 739 mmHg 98%
16:00 -1°C° 0 mm 5 m/s 740 mmHg 96%
17:00 0°C° 0 mm 5 m/s 740 mmHg 95%
18:00 -1°C° 0.2 mm 6 m/s 740 mmHg 94%
19:00 -2°C° 0.2 mm 6 m/s 740 mmHg 93%
20:00 -2°C° 0.2 mm 6 m/s 740 mmHg 92%
21:00 -2°C° 0.1 mm 6 m/s 740 mmHg 89%
22:00 -2°C° 0.1 mm 6 m/s 739 mmHg 86%
23:00 -2°C° 0.1 mm 6 m/s 739 mmHg 84%

25 Janeiro, Segunda-feira

Tempo Temperatura Precipitação Vento Pressão Humidade
00:00 -3°C° 0 mm 6 m/s 739 mmHg 84%
01:00 -3°C° 0 mm 6 m/s 739 mmHg 85%
02:00 -4°C° 0 mm 6 m/s 739 mmHg 86%
03:00 -4°C° 0 mm 6 m/s 739 mmHg 87%
04:00 -4°C° 0 mm 6 m/s 738 mmHg 89%
05:00 -4°C° 0 mm 6 m/s 738 mmHg 91%
06:00 -4°C° 0.2 mm 6 m/s 738 mmHg 92%
07:00 -4°C° 0.2 mm 6 m/s 738 mmHg 93%
08:00 -2°C° 0.2 mm 5 m/s 739 mmHg 95%
09:00 -2°C° 0 mm 5 m/s 739 mmHg 95%
10:00 -2°C° 0 mm 5 m/s 739 mmHg 95%
11:00 -2°C° 0 mm 5 m/s 739 mmHg 95%
12:00 -2°C° 0 mm 5 m/s 739 mmHg 96%
13:00 -2°C° 0 mm 4 m/s 739 mmHg 97%
14:00 0°C° 0 mm 3 m/s 739 mmHg 98%
15:00 0°C° 0 mm 3 m/s 739 mmHg 98%
16:00 0°C° 0 mm 3 m/s 739 mmHg 98%
17:00 0°C° 0 mm 3 m/s 739 mmHg 98%
18:00 0°C° 0 mm 3 m/s 739 mmHg 98%
19:00 0°C° 0 mm 3 m/s 739 mmHg 98%
20:00 -1°C° 0 mm 4 m/s 740 mmHg 98%
21:00 -1°C° 0 mm 4 m/s 739 mmHg 98%
22:00 -1°C° 0 mm 4 m/s 739 mmHg 98%
23:00 -1°C° 0 mm 4 m/s 739 mmHg 98%
Mostrar mais

Necessitamos do seu Consentimento

A Meteoprog e os seus Fornecedores de Serviços podem armazenar e aceder a dados pessoais como cookies, identificadores do dispositivo ou outras tecnologias semelhantes existentes no seu dispositivo e processar estes dados para personalizar conteúdos e anúncios, assim como funcionalidades nas redes sociais e análise de tráfego.

  • Armazenar e/ou aceder a informações no seu dispositivo

    Os cookies, identificadores do dispositivo ou outras informações podem ser armazenados ou acedidos no seu dispositivo, para os fins acima indicados.

  • Anúncios e conteúdos personalizados, medição de anúncios e conteúdos, dados sobre o público-alvo e desenvolvimento de produtos

    Os anúncios e os conteúdos podem ser personalizados com base num perfil. Podem ser adicionados dados adicionais para uma maior personalização dos anúncios e dos conteúdos. A eficácia dos anúncios e dos conteúdos pode ser medida. Podem ser obtidas informações sobre o público que visualizou os anúncios e os conteúdos. Estes dados podem ser usados para desenvolver ou melhorar sistemas, softwares ou a experiência do utilizador.

Ao clicar em "Eu concordo”, permitirá o uso de cookies, identificadores do dispositivo e web beacons mencionados ou outras tecnologias semelhantes. As configurações do navegador do seu dispositivo podem ser alteradas.

Para certos fins, podem ser invocados interesses legítimos ao invés de consentimento. Pode ler mais informação sobre este assunto na nossa Política de Privacidade e Cookies.